Location: Roland
(31.1349°N, 85.4372°W)
Time: 19:37:46
(UTC+00:00)

Transit 2A - Pass Details

Date: 28 April 2021
Orbit: 602 x 957 km, 66.7° (Epoch: 07 May)

Event Time Altitude Azimuth Distance (km) Brightness Sun altitude
Exits shadow 09:55:33 - 193° (SSW) 2,571 8.4 -13.6°
Reaches altitude 10° 09:56:31 10° 191° (S) 2,190 8.0 -13.4°
Maximum altitude 10:01:21 58° 113° (ESE) 779 6.3 -12.5°
Drops below altitude 10° 10:05:49 10° 34° (NE) 2,022 9.2 -11.6°
Sets 10:08:02 0° 31° (NNE) 2,901 10.0 -11.2°
